time_stamp(utc),avg(mph),gust(mph),direction(deg),12m_air_temp(f),sonic_u(cm/s),sonic_v(cm/s),sonic_w(cm/s),pressure,2m_air_temp(f),pyranometer(W/m^2)
"2019-04-06 00:01:45+00",13.9,15.9,,45.1,596,212,-6,1022.9,44.8,0
"2019-04-06 00:06:45+00",12.8,14.8,,45.2,531,200,-17,1022.88,44.8,0
"2019-04-06 00:11:45+00",14.5,16.5,,45.4,631,170,11,1022.94,45,0
"2019-04-06 00:16:45+00",14.6,17.6,,45.5,635,167,-2,1022.97,45,0
"2019-04-06 00:21:45+00",12.3,14.3,,45.6,527,198,3,1023.08,45.1,0
"2019-04-06 00:26:45+00",11.8,13.8,,45.4,459,257,-8,1023.05,45.1,0
"2019-04-06 00:31:45+00",10.9,11.9,,45.5,418,234,-8,1023.16,45,0
"2019-04-06 00:36:45+00",11.2,13.2,,45.5,466,186,5,1023.03,45.1,0
"2019-04-06 00:41:45+00",11.2,13.2,,45.5,455,184,-13,1023.08,45.2,0
"2019-04-06 00:46:45+00",10.6,12.6,,45.7,412,215,-11,1023.07,45.2,0
"2019-04-06 00:51:45+00",10.0,14.0,,45.8,393,192,-23,1023.12,45.3,0
"2019-04-06 00:56:45+00",10.9,12.9,,45.7,423,218,-14,1023.02,45.3,0
"2019-04-06 01:01:45+00",9.2,11.2,,45.9,369,158,-2,1023.07,45.4,0
"2019-04-06 01:06:45+00",8.2,9.2,,45.9,301,158,-40,1022.95,45.4,0
"2019-04-06 01:11:45+00",8.1,10.1,,45.9,289,171,-33,1022.94,45.4,0
"2019-04-06 01:16:45+00",8.7,10.7,,45.9,364,84,-17,1022.95,45.4,0
"2019-04-06 01:21:45+00",10.1,12.1,,45.9,421,100,-8,1023,45.5,0
"2019-04-06 01:26:45+00",8.1,10.1,,45.9,343,51,-12,1023.1,45.5,0
"2019-04-06 01:31:45+00",8.1,9.1,,45.8,339,100,-22,1023.1,45.5,0
"2019-04-06 01:36:45+00",6.9,8.9,,45.8,284,108,-8,1023.11,45.5,0
"2019-04-06 01:41:45+00",8.0,9.0,,45.7,325,107,-12,1023.18,45.5,0
"2019-04-06 01:46:45+00",9.5,10.5,,45.7,399,79,-23,1023.08,45.4,0
"2019-04-06 01:51:45+00",11.9,13.9,,45.9,507,57,-16,1022.86,45.5,0
"2019-04-06 01:56:45+00",10.6,12.6,,46.5,442,-92,-11,1022.82,45.9,0
"2019-04-06 02:01:45+00",5.4,6.4,,46.8,218,7,-26,1022.84,46.1,0
"2019-04-06 02:06:45+00",3.6,4.6,,46.8,126,59,-21,1022.66,46.2,0
"2019-04-06 02:11:45+00",10.2,11.2,,47.2,392,-218,-35,1022.53,46.5,0
"2019-04-06 02:16:45+00",12.4,14.4,,47.3,518,-187,-7,1022.43,46.8,0
"2019-04-06 02:21:45+00",13.6,16.6,,47.3,580,-162,5,1022.41,46.7,0
"2019-04-06 02:26:45+00",10.8,12.8,,47.3,457,-153,-14,1022.46,46.8,0
"2019-04-06 02:31:45+00",8.9,9.9,,47.2,367,-97,-11,1022.45,46.7,0
"2019-04-06 02:36:45+00",4.8,5.8,,47.1,158,-117,-21,1022.56,46.7,0
"2019-04-06 02:41:45+00",2.9,3.9,,47.2,-8,-94,11,1022.65,46.8,0
"2019-04-06 02:46:45+00",5.4,7.4,,47.2,117,-174,-53,1022.61,46.9,0
"2019-04-06 02:51:45+00",2.9,4.9,,47.2,-87,3,22,1022.62,46.9,0
"2019-04-06 02:56:45+00",6.3,7.3,,47.5,-152,-35,-17,1022.66,47,0
"2019-04-06 03:01:45+00",5.3,6.3,,47.8,190,-90,-28,1022.4,47.2,0
"2019-04-06 03:06:45+00",9.5,11.5,,48.1,254,-307,-52,1022.42,47.5,0
"2019-04-06 03:11:45+00",7.2,8.2,,48.2,249,-154,-44,1022.4,47.6,0
"2019-04-06 03:16:45+00",4.8,5.8,,48.1,159,-115,-22,1022.39,47.5,0
"2019-04-06 03:21:45+00",1.9,2.9,,48.4,36,-47,15,1022.39,47.8,0
"2019-04-06 03:26:45+00",5.3,6.3,,48.3,203,-25,-27,1022.27,47.8,0
"2019-04-06 03:31:45+00",9.2,10.2,,48.3,373,-78,-42,1022.12,47.7,0
"2019-04-06 03:36:45+00",7.9,8.9,,48.2,312,-45,-37,1022.05,47.6,0
"2019-04-06 03:41:45+00",6.8,9.8,,48,265,-68,-37,1022.04,47.5,0
"2019-04-06 03:46:45+00",9.0,10.0,,47.9,345,-134,-46,1021.85,47.4,0
"2019-04-06 03:51:45+00",7.6,8.6,,48.1,301,-94,-24,1021.83,47.4,0
"2019-04-06 03:56:45+00",4.4,5.4,,48.1,-170,-80,19,1021.98,47.5,0
"2019-04-06 04:01:45+00",2.3,3.3,,48.1,-13,-79,-10,1021.98,47.5,0
"2019-04-06 04:06:45+00",2.8,3.8,,48.2,-67,-103,-8,1021.92,47.6,0
"2019-04-06 04:11:45+00",2.2,3.2,,48.2,-38,-87,-1,1021.97,47.6,0
"2019-04-06 04:16:45+00",0.0,0.0,,48.2,-2,-55,-9,1021.87,47.6,0
"2019-04-06 04:21:45+00",3.2,4.2,,48.2,84,-66,-26,1021.7,47.7,0
"2019-04-06 04:26:45+00",2.7,2.7,,48.2,86,-4,-12,1021.65,47.6,0
"2019-04-06 04:31:45+00",2.5,2.5,,48.1,81,12,-11,1021.63,47.6,0
"2019-04-06 04:36:45+00",2.6,2.6,,48,82,3,-11,1021.61,47.6,0
"2019-04-06 04:41:45+00",3.1,3.1,,48.1,82,79,-16,1021.51,47.6,0
"2019-04-06 04:46:45+00",3.1,3.1,,48.1,70,91,-24,1021.49,47.6,0
"2019-04-06 04:51:45+00",3.3,4.3,,48.1,101,83,-10,1021.34,47.7,0
"2019-04-06 04:56:45+00",3.1,3.1,,48,107,48,-14,1021.23,47.6,0
"2019-04-06 05:01:45+00",4.1,4.1,,48,145,35,-19,1021.16,47.5,0
"2019-04-06 05:06:45+00",5.0,5.0,,47.9,180,34,-23,1021.03,47.4,0
"2019-04-06 05:11:45+00",4.5,4.5,,47.9,158,48,-21,1020.99,47.4,0
"2019-04-06 05:16:45+00",4.1,5.1,,47.7,146,56,-19,1020.95,47.3,0
"2019-04-06 05:21:45+00",3.9,3.9,,47.6,133,53,-20,1020.86,47.3,0
"2019-04-06 05:26:45+00",4.1,5.1,,47.5,156,53,-15,1020.78,47.3,0
"2019-04-06 05:31:45+00",4.7,4.7,,47.4,152,105,-21,1020.7,47.2,0
"2019-04-06 05:36:45+00",5.0,5.0,,47.4,148,126,-26,1020.74,47.2,0
"2019-04-06 05:41:45+00",4.7,4.7,,47.4,116,128,-32,1020.65,47.1,0
"2019-04-06 05:46:45+00",4.0,4.0,,47.4,84,119,-26,1020.71,47.1,0
"2019-04-06 05:51:45+00",3.7,3.7,,47.5,79,111,-22,1020.64,47.2,0
"2019-04-06 05:56:45+00",3.9,3.9,,47.5,76,125,-22,1020.47,47.2,0
"2019-04-06 06:01:45+00",3.7,4.7,,47.5,78,136,-17,1020.3,47.3,0
"2019-04-06 06:06:45+00",3.9,3.9,,47.6,71,145,-19,1020.35,47.3,0
"2019-04-06 06:11:45+00",4.2,5.2,,47.6,85,153,-23,1020.21,47.3,0
"2019-04-06 06:16:45+00",3.6,4.6,,47.6,75,122,-22,1020.14,47.3,0
"2019-04-06 06:21:45+00",3.3,4.3,,47.7,62,122,-17,1020.11,47.4,0
"2019-04-06 06:26:45+00",3.8,3.8,,47.7,78,127,-24,1019.94,47.4,0
"2019-04-06 06:31:45+00",2.6,2.6,,47.6,44,97,-13,1019.97,47.4,0
"2019-04-06 06:36:45+00",2.7,2.7,,47.6,62,85,-16,1019.93,47.4,0
"2019-04-06 06:41:45+00",2.5,2.5,,47.7,67,72,-12,1019.82,47.4,0
"2019-04-06 06:46:45+00",2.6,2.6,,47.7,41,99,-9,1019.84,47.4,0
"2019-04-06 06:51:45+00",3.0,3.0,,47.7,59,109,-14,1019.73,47.4,0
"2019-04-06 06:56:45+00",2.9,2.9,,47.6,68,104,-9,1019.65,47.4,0
"2019-04-06 07:01:45+00",3.3,4.3,,47.6,34,135,-6,1019.64,47.4,0
"2019-04-06 07:06:45+00",4.0,4.0,,47.7,39,166,-18,1019.55,47.4,0
"2019-04-06 07:11:45+00",3.4,4.4,,47.7,36,138,-18,1019.55,47.5,0
"2019-04-06 07:16:45+00",3.1,4.1,,47.7,36,123,-11,1019.54,47.5,0
"2019-04-06 07:21:45+00",3.7,4.7,,47.7,48,140,-29,1019.51,47.5,0
"2019-04-06 07:26:45+00",3.5,3.5,,47.7,59,130,-18,1019.45,47.5,0
"2019-04-06 07:31:45+00",3.5,4.5,,47.7,79,103,-24,1019.39,47.5,0
"2019-04-06 07:36:45+00",3.0,3.0,,47.7,61,103,-16,1019.41,47.5,0
"2019-04-06 07:41:45+00",3.3,4.3,,47.7,46,128,-19,1019.41,47.5,0
"2019-04-06 07:46:45+00",4.2,5.2,,47.8,-1,188,-30,1019.43,47.5,0
"2019-04-06 07:51:45+00",4.3,5.3,,47.7,-18,180,-24,1019.43,47.5,0
"2019-04-06 07:56:45+00",4.9,5.9,,47.7,-38,201,-33,1019.4,47.5,0
"2019-04-06 08:01:45+00",5.2,5.2,,47.7,-71,175,-57,1019.41,47.5,0
"2019-04-06 08:06:45+00",5.0,6.0,,47.7,-70,120,-31,1019.37,47.5,0
"2019-04-06 08:11:45+00",4.2,5.2,,47.7,-62,75,-21,1019.38,47.5,0
"2019-04-06 08:36:45+00",5.8,5.8,,47.8,1232,-2249,1280,1019.32,47.5,0
"2019-04-06 08:41:45+00",4.9,5.9,,47.8,-2077,3572,-1897,1019.37,47.5,0
"2019-04-06 08:56:45+00",4.3,5.3,,47.7,17002,0,50,1019.54,47.5,-0.1
"2019-04-06 09:01:45+00",2.9,2.9,,47.6,-531,862,-439,1019.61,47.5,0
"2019-04-06 09:06:45+00",3.5,4.5,,47.6,-36,190,-13,1019.7,47.5,0
"2019-04-06 09:11:45+00",3.5,4.5,,47.5,-1404,2481,-1297,1019.72,47.4,0
"2019-04-06 09:26:45+00",5.0,6.0,,47.2,-95,179,-33,1019.78,47.2,0
"2019-04-06 09:31:45+00",4.5,5.5,,47.1,-95,159,-27,1019.83,47.1,0
"2019-04-06 09:36:45+00",5.5,6.5,,47,-101,189,-36,1019.81,47,0
"2019-04-06 09:41:45+00",6.6,6.6,,46.9,-113,242,-36,1019.87,46.9,0
"2019-04-06 09:46:45+00",5.9,6.9,,46.9,-96,212,-32,1019.9,46.8,0
"2019-04-06 09:51:45+00",5.4,6.4,,46.8,-102,174,-24,1019.98,46.8,0
"2019-04-06 09:56:45+00",6.0,7.0,,46.7,-80,216,-33,1019.94,46.7,0
"2019-04-06 10:01:45+00",3.5,4.5,,46.7,-50,120,-14,1020.08,46.6,0
"2019-04-06 10:06:45+00",3.7,4.7,,46.6,-98,108,-14,1020.22,46.6,0
"2019-04-06 10:11:45+00",3.7,4.7,,46.5,-34,135,-23,1020.24,46.5,0
"2019-04-06 10:16:45+00",4.3,5.3,,46.5,-107,140,1,1020.4,46.5,0
"2019-04-06 10:21:45+00",5.1,6.1,,46.4,-112,182,16,1020.47,46.4,0
"2019-04-06 10:26:45+00",4.8,4.8,,46.4,-97,178,15,1020.49,46.4,0
"2019-04-06 10:31:45+00",4.6,5.6,,46.3,-146,122,11,1020.47,46.3,0
"2019-04-06 10:36:45+00",5.6,6.6,,46.2,-142,192,23,1020.49,46.2,0
"2019-04-06 10:41:45+00",5.6,6.6,,46.2,-149,191,18,1020.57,46.2,0
"2019-04-06 10:46:45+00",6.7,6.7,,46.1,-169,232,19,1020.57,46.1,0
"2019-04-06 10:51:45+00",6.4,7.4,,46,-161,224,19,1020.59,46.1,0
"2019-04-06 10:56:45+00",6.5,7.5,,46,-137,239,15,1020.61,46,0
"2019-04-06 11:01:45+00",5.2,6.2,,45.9,-125,177,21,1020.65,45.9,0
"2019-04-06 11:06:45+00",4.3,5.3,,45.9,-70,163,20,1020.64,45.9,0
"2019-04-06 11:11:45+00",6.0,7.0,,45.9,-151,207,23,1020.82,45.9,0
"2019-04-06 11:16:45+00",6.5,7.5,,45.9,-77,260,11,1020.72,45.9,0
"2019-04-06 11:21:45+00",6.8,7.8,,45.8,-125,257,19,1020.93,45.9,0
"2019-04-06 11:26:45+00",6.6,7.6,,45.7,-122,254,21,1021.02,45.8,0
"2019-04-06 11:31:45+00",6.7,7.7,,45.7,-84,273,20,1020.88,45.8,0
"2019-04-06 11:36:45+00",8.3,9.3,,45.6,-57,353,4,1020.78,45.8,0.4
"2019-04-06 11:41:45+00",6.8,7.8,,45.7,-29,286,6,1020.87,45.9,6.9
"2019-04-06 11:46:45+00",5.1,6.1,,45.7,-67,203,9,1021.03,46,4.8
"2019-04-06 11:51:45+00",5.4,6.4,,45.7,-85,216,5,1021.16,46,1.2
"2019-04-06 11:56:45+00",5.2,6.2,,45.7,-115,179,29,1021.26,46,12.9
"2019-04-06 12:01:45+00",6.5,7.5,,45.8,-59,272,8,1021.18,46.1,23.9
"2019-04-06 12:06:45+00",6.0,7.0,,45.9,-50,253,13,1021.14,46.3,53.3
"2019-04-06 12:11:45+00",6.3,7.3,,45.9,-30,265,7,1021.2,46.5,40.6
"2019-04-06 12:16:45+00",7.7,8.7,,45.9,-113,315,8,1021.29,46.6,38.7
"2019-04-06 12:21:45+00",8.1,9.1,,46,-107,331,7,1021.31,46.5,40.8
"2019-04-06 12:26:45+00",7.1,9.1,,46.2,-101,292,18,1021.4,46.6,48.3
"2019-04-06 12:31:45+00",7.5,8.5,,46.6,-137,295,22,1021.4,46.9,54.8
"2019-04-06 12:36:45+00",6.0,7.0,,46.7,-125,227,47,1021.35,47,53.4
"2019-04-06 12:41:45+00",8.3,9.3,,46.5,-242,265,23,1021.31,47,57.8
"2019-04-06 12:46:45+00",7.4,8.4,,46.6,-221,227,20,1021.31,47,61.6
"2019-04-06 12:51:45+00",6.6,7.6,,46.5,-107,258,6,1021.35,47,71.4
"2019-04-06 12:56:45+00",6.1,7.1,,46.7,-64,252,7,1021.35,47.3,84.7
"2019-04-06 13:01:45+00",6.4,7.4,,46.9,-156,240,38,1021.45,47.5,78.6
"2019-04-06 13:06:45+00",5.9,6.9,,46.8,-169,191,32,1021.4,47.4,79.7
"2019-04-06 13:11:45+00",6.3,7.3,,46.9,-201,182,25,1021.47,47.5,89.1
"2019-04-06 13:16:45+00",7.2,8.2,,47.2,-128,286,27,1021.41,47.7,91.6
"2019-04-06 13:21:45+00",5.9,6.9,,47.4,-102,240,49,1021.44,47.9,148.9
"2019-04-06 13:26:45+00",5.2,6.2,,47.5,-37,212,7,1021.5,48.2,120.4
"2019-04-06 13:31:45+00",6.1,6.1,,47.7,-159,211,20,1021.58,48.4,127.5
"2019-04-06 13:36:45+00",5.2,6.2,,48,-27,211,22,1021.46,48.8,95.9
"2019-04-06 13:41:45+00",4.0,5.0,,48.2,-56,153,34,1021.64,49,100.4
"2019-04-06 13:46:45+00",5.5,6.5,,47.9,-209,122,51,1021.67,49.1,116
"2019-04-06 13:51:45+00",5.5,6.5,,47.6,-228,63,18,1021.59,48.9,127.3
"2019-04-06 13:56:45+00",8.0,8.0,,47.7,-306,170,12,1021.67,49,113.5
"2019-04-06 14:01:45+00",7.2,8.2,,47.9,-252,192,11,1021.66,49.1,136.7
"2019-04-06 14:06:45+00",7.0,8.0,,48.2,-229,206,16,1021.61,49.2,166.8
"2019-04-06 14:11:45+00",7.2,8.2,,48.5,-258,199,18,1021.65,49.5,134.1
"2019-04-06 14:16:45+00",5.7,6.7,,48.9,-133,202,22,1021.58,49.8,150.1
"2019-04-06 14:21:45+00",7.3,9.3,,49.1,-208,242,41,1021.5,50.1,149.5
"2019-04-06 14:26:45+00",6.6,7.6,,49.7,-193,214,40,1021.51,50.5,147.4
"2019-04-06 14:31:45+00",8.9,9.9,,50.1,-161,355,24,1021.45,51,162.1
"2019-04-06 14:36:45+00",6.4,7.4,,49.6,-207,195,48,1021.54,51.1,168.7
"2019-04-06 14:41:45+00",8.9,10.9,,50.4,1,385,15,1021.54,51.6,175.6
"2019-04-06 14:46:45+00",9.8,11.8,,50.7,24,425,6,1021.48,52.4,162.8
"2019-04-06 14:51:45+00",10.2,12.2,,50.8,-1,435,-13,1021.49,53.2,243.8
"2019-04-06 14:56:45+00",10.1,11.1,,50.9,-3,431,19,1021.61,53.7,351.7
"2019-04-06 15:01:45+00",7.4,9.4,,51.3,-9,315,21,1021.48,54.5,449.2
"2019-04-06 15:06:45+00",9.1,12.1,,51.3,108,358,-1,1021.45,55,477.6
"2019-04-06 15:11:45+00",9.8,11.8,,51.5,107,394,2,1021.38,55.3,498.9
"2019-04-06 15:16:45+00",9.0,11.0,,51.5,183,324,13,1021.38,55.3,450.6
"2019-04-06 15:21:45+00",9.2,11.2,,52,203,325,13,1021.38,55.6,499.9
"2019-04-06 15:26:45+00",8.4,10.4,,52.2,204,278,20,1021.28,56.3,505.3
"2019-04-06 15:31:45+00",8.4,9.4,,52.1,192,290,4,1021.27,56,502.3
"2019-04-06 15:36:45+00",7.3,9.3,,52.2,38,309,0,1021.18,56.2,499.6
"2019-04-06 15:41:45+00",7.4,11.4,,53.2,106,257,69,1021.34,56.9,477.9
"2019-04-06 15:46:45+00",7.0,8.0,,53.3,29,289,3,1021.32,57.1,505.2
"2019-04-06 15:51:45+00",8.4,9.4,,53.1,253,242,24,1021.28,57.2,505.5
"2019-04-06 15:56:45+00",8.1,10.1,,53.6,165,273,33,1021.19,57.4,511.8
"2019-04-06 16:01:45+00",7.1,8.1,,53.5,193,220,0,1021.19,57.6,515
"2019-04-06 16:06:45+00",5.4,6.4,,53.8,50,208,-15,1021.24,58,515
"2019-04-06 16:11:45+00",7.3,8.3,,54.3,175,246,-2,1021.26,58.3,518.1
"2019-04-06 16:16:45+00",5.5,7.5,,54.5,180,142,11,1021.19,58.7,519.5
"2019-04-06 16:21:45+00",7.8,9.8,,53.3,315,-134,16,1021.33,58.4,517.3
"2019-04-06 16:26:45+00",8.6,9.6,,51.4,271,-244,-4,1021.24,56.5,517.4
"2019-04-06 16:31:45+00",7.2,8.2,,50.7,227,-209,-11,1021.38,55.5,518
"2019-04-06 16:36:45+00",5.7,5.7,,50.6,142,-201,-29,1021.37,54.8,515.9
"2019-04-06 16:41:45+00",7.1,9.1,,50.9,159,-257,-10,1021.46,54.2,484.3
"2019-04-06 16:46:45+00",8.3,9.3,,50.7,162,-309,-2,1021.39,53.6,515.2
"2019-04-06 16:51:45+00",6.7,8.7,,51,94,-259,-12,1021.35,53.9,514.9
"2019-04-06 16:56:45+00",6.6,7.6,,51.4,84,-261,7,1021.36,54.3,512.3
"2019-04-06 17:01:45+00",6.8,7.8,,50.8,172,-234,-28,1021.33,53.8,509.8
"2019-04-06 17:06:45+00",6.7,7.7,,50.3,197,-204,-12,1021.39,53.9,510.7
"2019-04-06 17:11:45+00",5.3,6.3,,50.7,172,-148,-20,1021.45,54.5,512.8
"2019-04-06 17:16:45+00",6.6,7.6,,50.9,220,-177,-5,1021.36,54.8,509.6
"2019-04-06 17:21:45+00",8.1,9.1,,50.7,281,-201,-14,1021.43,55.2,510.3
"2019-04-06 17:26:45+00",7.5,9.5,,50,285,-160,9,1021.41,54.9,508.1
"2019-04-06 17:31:45+00",8.1,9.1,,49.3,286,-204,-7,1021.4,54.6,511.8
"2019-04-06 17:36:45+00",9.1,10.1,,49.6,346,-201,4,1021.36,54.7,509.2
"2019-04-06 17:41:45+00",8.9,9.9,,49.7,315,-227,-11,1021.4,54.7,503.7
"2019-04-06 17:46:45+00",10.2,11.2,,49.7,379,-238,-15,1021.39,54.8,506.2
"2019-04-06 17:51:45+00",9.8,10.8,,50.2,345,-259,-16,1021.38,54.8,500.7
"2019-04-06 17:56:45+00",11.5,12.5,,50.1,435,-257,-8,1021.36,54.5,499.8
"2019-04-06 18:01:45+00",12.0,13.0,,50,476,-244,-5,1021.31,54.7,497.1
"2019-04-06 18:06:45+00",11.8,12.8,,49.5,467,-241,28,1021.21,54.5,492
"2019-04-06 18:11:45+00",11.3,12.3,,49.4,462,-201,0,1021.19,54.3,488.8
"2019-04-06 18:16:45+00",12.1,13.1,,49,471,-249,0,1021.03,53.9,483.9
"2019-04-06 18:21:45+00",10.5,11.5,,49,372,-267,6,1021.04,53.7,476.8
"2019-04-06 18:26:45+00",10.3,12.3,,49.5,354,-267,0,1021.02,53.7,471.7
"2019-04-06 18:31:45+00",9.7,10.7,,49.7,310,-287,-3,1020.94,53.6,466.1
"2019-04-06 18:36:45+00",9.3,10.3,,50.4,310,-252,-4,1020.9,54.1,458.4
"2019-04-06 18:41:45+00",8.2,9.2,,51.1,242,-257,22,1020.97,54.8,453.3
"2019-04-06 18:46:45+00",7.8,9.8,,52,261,-204,8,1020.93,55.4,439.8
"2019-04-06 18:51:45+00",8.9,9.9,,52.2,344,-186,-4,1020.97,56.4,440.3
"2019-04-06 18:56:45+00",8.9,9.9,,52.4,300,-246,3,1020.97,56.6,437.1
"2019-04-06 19:01:45+00",8.6,9.6,,52.6,282,-238,-11,1020.91,56.7,413.2
"2019-04-06 19:06:45+00",9.4,10.4,,53.1,362,-197,14,1020.79,57.2,415.7
"2019-04-06 19:11:45+00",8.6,10.6,,53.1,311,-213,21,1020.73,57.3,409.6
"2019-04-06 19:16:45+00",9.2,11.2,,52.7,308,-255,-5,1020.79,57.1,370.8
"2019-04-06 19:21:45+00",8.7,10.7,,52.1,280,-250,-3,1020.83,56.2,390.1
"2019-04-06 19:26:45+00",8.2,9.2,,52,121,-324,-1,1020.92,55.9,381.3
"2019-04-06 19:31:45+00",8.1,9.1,,52.2,226,-259,-33,1020.96,55.5,369.6
"2019-04-06 19:36:45+00",8.1,9.1,,52.6,200,-293,29,1020.93,55.7,363.6
"2019-04-06 19:41:45+00",9.8,10.8,,51.9,54,-400,-28,1020.95,54.7,346.2
"2019-04-06 19:46:45+00",8.1,9.1,,50.9,123,-325,14,1020.95,53.3,331.6
"2019-04-06 19:51:45+00",9.5,11.5,,50.7,100,-387,-21,1020.96,53.1,324.2
"2019-04-06 19:56:45+00",8.3,10.3,,50.8,44,-348,6,1020.93,52.8,304.5
"2019-04-06 20:01:45+00",11.1,12.1,,51.2,78,-463,-16,1020.93,52.9,250.2
"2019-04-06 20:06:45+00",8.1,10.1,,51.5,51,-332,18,1021.03,53.3,262.7
"2019-04-06 20:11:45+00",8.4,9.4,,51.7,0,-347,-4,1021.04,53.1,300.9
"2019-04-06 20:16:45+00",8.6,11.6,,52.3,40,-362,-2,1021.06,53.5,292.1
"2019-04-06 20:21:45+00",9.8,10.8,,52.4,74,-411,-33,1021.04,54,259.2
"2019-04-06 20:26:45+00",9.9,10.9,,52.5,29,-415,-31,1020.82,53.9,241.6
"2019-04-06 20:31:45+00",9.5,10.5,,52,-8,-396,-23,1020.92,53.5,242.8
"2019-04-06 20:36:45+00",8.3,11.3,,52.2,27,-351,-7,1020.91,53.7,201.1
"2019-04-06 20:41:45+00",7.9,8.9,,52.5,20,-324,-16,1020.88,53.7,210.9
"2019-04-06 20:46:45+00",7.6,8.6,,52.5,31,-318,-11,1020.8,53.7,204
"2019-04-06 20:51:45+00",8.3,10.3,,52.8,-25,-338,-3,1020.8,54,201.3
"2019-04-06 20:56:45+00",8.3,10.3,,52.7,25,-349,-6,1020.92,54,213
"2019-04-06 21:01:45+00",7.4,10.4,,53.2,12,-321,1,1020.91,54.4,206.3
"2019-04-06 21:06:45+00",7.7,9.7,,53.2,-17,-319,-24,1020.91,54.3,192.4
"2019-04-06 21:11:45+00",7.0,10.0,,53.4,-83,-281,22,1020.98,54.5,200.3
"2019-04-06 21:16:45+00",7.9,9.9,,53.6,-39,-318,5,1021.01,54.5,187.4
"2019-04-06 21:21:45+00",7.5,9.5,,53.5,-55,-309,-5,1021,54.5,191
"2019-04-06 21:26:45+00",8.8,9.8,,53.5,36,-363,-19,1020.93,54.5,180.7
"2019-04-06 21:31:45+00",6.1,8.1,,53.7,-26,-235,31,1020.9,54.5,169.8
"2019-04-06 21:36:45+00",8.2,9.2,,53.9,43,-345,-20,1020.91,54.8,158.2
"2019-04-06 21:41:45+00",7.5,9.5,,53.5,4,-317,-5,1020.92,54.7,147.6
"2019-04-06 21:46:45+00",7.9,10.9,,53.3,27,-322,14,1020.89,54.4,137.8
"2019-04-06 21:51:45+00",9.3,10.3,,53.1,38,-382,-24,1020.89,53.9,127.4
"2019-04-06 21:56:45+00",7.5,9.5,,52.7,38,-311,1,1020.89,53.6,115.8
"2019-04-06 22:01:45+00",9.4,10.4,,52.5,29,-397,-40,1021.08,53.2,105.1
"2019-04-06 22:06:45+00",8.3,9.3,,52.1,76,-343,-15,1021.05,52.9,94.7
"2019-04-06 22:11:45+00",7.4,8.4,,51.6,93,-296,-11,1021.1,52.4,84.4
"2019-04-06 22:16:45+00",7.8,9.8,,51,80,-319,8,1021.15,52,71.6
"2019-04-06 22:21:45+00",9.4,10.4,,49.6,77,-389,-22,1021.13,50.7,61.3
"2019-04-06 22:26:45+00",9.5,10.5,,49.2,93,-394,-15,1021.19,50.1,52.4
"2019-04-06 22:31:45+00",9.7,10.7,,48.8,118,-394,-13,1021.2,49.7,42.6
"2019-04-06 22:36:45+00",6.6,8.6,,48.1,16,-273,15,1021.32,48.9,32.5
"2019-04-06 22:41:45+00",8.9,9.9,,48,37,-375,-43,1021.21,48.6,22.7
"2019-04-06 22:46:45+00",5.3,7.3,,48.2,7,-209,-23,1021.33,48.6,14.6
"2019-04-06 22:51:45+00",5.7,6.7,,48.2,6,-234,-37,1021.29,48.5,5.1
"2019-04-06 22:56:45+00",3.0,4.0,,48.3,-2,-107,-18,1021.41,48.7,0.6
"2019-04-06 23:01:45+00",3.3,4.3,,48.6,-24,-120,-19,1021.23,48.9,0
"2019-04-06 23:06:45+00",3.3,4.3,,48.6,-32,-117,-22,1021.21,48.8,0
"2019-04-06 23:11:45+00",3.5,4.5,,48.4,-31,-134,4,1021.22,48.6,0
"2019-04-06 23:16:45+00",4.1,4.1,,48.4,-72,-144,-28,1021.27,48.6,0
"2019-04-06 23:21:45+00",4.1,4.1,,48.4,-16,-165,-5,1021.24,48.6,0
"2019-04-06 23:26:45+00",4.5,5.5,,48.5,-28,-179,-2,1021.18,48.4,0
"2019-04-06 23:31:45+00",4.7,5.7,,48.6,-87,-179,1,1021.27,48.3,0
"2019-04-06 23:36:45+00",4.8,5.8,,48.6,-51,-181,-31,1021.33,48.3,0
"2019-04-06 23:41:45+00",5.4,6.4,,48.5,-20,-218,-34,1021.32,48.3,0
"2019-04-06 23:46:45+00",4.7,5.7,,48.3,-40,-183,-31,1021.38,48.1,0
"2019-04-06 23:51:45+00",5.4,6.4,,48.1,-76,-205,-37,1021.27,47.9,0
"2019-04-06 23:56:45+00",4.4,5.4,,47.9,-41,-170,-31,1021.32,47.8,0
